Wind_Speed
68 69 70 71 72 73 74 74 74 74 74 74 73 73 73 73 73 73 72 71 71 70 70 70 70 69 69 68 67 66 65 64 63 63 63 63 63 64 65 66 66 67 69 70 69 68 69 69 69 69 69 69 69 69 69 68 68 66 65 63 61 59 56 51 44 38 36 35 35 34 32 30 29 28 27 26 26 26 25 23 20 19 18 19 20
69 70 72 73 75 76 77 76 76 75 75 74 73 74 74 74 74 73 72 72 71 71 71 71 70 69 69 69 68 67 66 65 65 66 66 66 66 66 66 67 67 67 68 69 70 70 69 69 69 68 68 69 69 69 68 67 66 65 63 61 57 54 51 46 40 36 35 34 34 32 30 28 27 26 26 26 26 25 23 21 18 18 18 19 19
71 72 74 76 78 79 79 78 77 77 75 74 74 75 75 75 75 74 73 72 72 72 72 71 70 70 70 69 69 68 68 68 67 67 67 67 67 67 67 68 69 69 69 69 69 69 69 68 68 67 67 67 67 67 66 65 64 62 60 56 52 49 46 41 36 34 34 33 32 30 28 27 26 25 25 25 25 24 21 19 17 17 18 18 19
72 74 76 79 81 82 81 80 79 77 76 75 76 76 77 76 75 74 73 73 73 73 72 71 70 70 70 70 69 69 69 69 68 68 68 67 68 68 69 70 70 71 71 70 69 68 68 67 66 66 66 65 65 64 63 62 60 58 55 51 48 45 40 36 34 33 33 32 30 29 27 27 26 24 24 24 23 21 19 17 16 17 18 18 19
74 76 79 82 83 84 83 81 79 78 77 77 77 78 78 77 76 74 74 74 73 73 73 72 71 70 70 70 70 70 70 69 68 68 68 68 69 70 70 71 71 71 71 70 69 68 66 65 64 64 64 63 62 61 59 58 56 53 50 46 43 39 35 33 33 33 32 30 29 27 27 26 24 23 23 23 21 19 16 16 16 17 18 19 19
76 79 82 85 86 85 84 82 81 80 79 79 79 79 78 78 76 75 75 74 74 74 73 72 71 71 70 70 70 70 70 69 69 69 69 70 71 71 71 72 72 72 71 70 68 66 64 63 61 61 60 59 58 57 56 54 51 49 45 41 38 34 33 33 32 31 30 28 27 27 26 25 23 22 22 21 19 17 15 15 16 17 18 19 19
79 81 85 86 87 87 86 84 83 82 81 81 80 79 79 78 77 76 76 75 75 75 74 73 72 71 71 70 70 70 70 69 69 69 70 71 72 72 72 72 72 71 70 68 66 64 62 59 58 58 57 56 55 54 52 50 47 44 39 36 34 32 32 32 31 29 28 27 26 26 25 24 22 21 21 19 18 16 15 15 16 17 18 19 19
81 84 87 88 88 88 87 86 85 84 82 81 80 80 79 79 78 77 76 76 76 76 75 74 73 72 71 71 70 70 70 70 70 70 71 71 72 73 73 72 70 69 68 66 64 62 58 55 55 54 53 52 51 51 49 46 43 38 34 33 32 32 31 30 29 28 26 26 26 26 25 23 21 20 19 18 17 16 15 15 16 18 18 18 19
83 86 89 90 90 89 88 87 86 84 83 81 80 80 80 79 79 78 77 76 77 76 75 74 73 72 72 72 71 71 71 71 71 71 72 73 73 73 71 69 69 68 66 63 60 57 53 53 52 49 48 48 48 47 44 41 38 34 32 32 32 31 29 27 27 26 25 25 25 25 24 22 20 18 18 18 17 16 16 16 17 18 17 18 19
86 89 91 92 92 91 90 89 87 85 83 82 81 81 80 80 80 79 78 77 77 77 75 74 73 73 73 73 72 72 72 72 72 72 72 72 72 70 68 67 67 65 60 57 54 50 50 49 46 45 46 45 44 43 40 37 34 32 31 32 32 29 27 26 26 24 24 24 24 24 23 21 19 18 18 18 18 17 17 17 18 18 17 18 18
89 92 93 93 93 92 92 90 88 86 84 83 81 81 81 81 81 80 80 79 79 77 75 74 74 74 74 73 73 73 73 72 72 72 71 69 69 68 67 66 64 59 54 52 50 47 47 44 42 43 44 42 41 39 37 35 33 31 31 32 30 27 26 26 25 23 23 24 24 24 23 21 18 18 18 18 18 18 18 18 19 18 17 17 18
92 94 95 95 94 94 92 90 88 86 84 84 82 81 82 82 81 81 81 81 80 78 76 74 74 74 74 74 73 73 73 72 71 71 70 68 67 66 64 62 59 54 50 49 47 46 44 41 41 42 41 39 37 36 35 33 31 29 30 30 28 26 26 25 23 23 23 23 24 24 23 20 19 18 18 18 19 19 19 19 19 19 18 17 17
95 96 97 97 96 95 93 90 88 86 85 84 83 83 83 83 83 82 82 82 81 78 76 75 74 74 74 74 73 74 73 72 72 70 67 66 64 63 60 57 53 49 48 47 47 46 43 40 40 39 38 36 34 33 32 31 29 28 29 28 26 26 25 24 22 22 23 23 24 24 23 20 19 18 18 19 20 20 20 20 20 20 19 18 17
97 98 99 98 97 95 92 89 87 87 87 85 84 84 84 84 83 83 82 82 82 79 77 76 74 74 73 73 73 72 72 72 70 66 63 62 61 59 55 50 46 45 46 46 47 45 42 39 38 37 36 33 32 31 31 30 27 25 25 25 26 26 25 24 22 22 23 23 23 24 23 21 20 19 18 19 20 20 20 21 21 21 20 19 18
99 100 100 98 96 93 91 89 88 87 87 86 86 85 85 84 84 84 82 81 81 80 78 76 75 73 72 72 72 71 70 68 65 62 59 58 57 55 50 45 43 42 43 44 43 41 38 36 35 34 32 30 30 30 30 28 25 22 23 25 26 27 26 24 22 22 23 23 23 24 23 21 21 20 19 19 20 21 21 22 22 22 21 20 19
101 101 99 97 94 91 90 90 89 88 87 87 86 86 85 85 84 83 82 80 79 79 78 75 72 70 69 68 67 65 61 60 60 57 53 52 53 50 45 43 42 40 40 40 39 37 34 32 32 29 27 28 29 29 28 26 25 24 25 26 27 28 27 25 23 23 23 23 23 24 23 21 21 21 20 19 19 20 21 22 23 22 22 21 20
101 99 97 94 92 91 90 90 89 88 87 86 86 86 85 85 83 82 81 79 77 75 72 66 61 60 60 57 52 50 50 54 56 53 49 48 47 45 43 42 41 38 37 36 35 33 30 29 27 25 25 27 28 27 26 27 28 27 27 27 28 29 28 26 25 24 24 24 23 23 23 22 22 22 20 20 19 20 21 23 23 23 22 22 22
99 97 95 93 92 91 89 89 88 87 87 86 86 86 85 83 82 80 78 73 69 63 57 54 51 50 49 46 44 45 50 54 54 50 47 44 41 41 41 42 40 37 35 33 32 30 29 27 24 24 25 26 26 26 27 29 30 30 28 28 29 29 28 27 26 26 25 25 24 24 23 22 22 23 21 20 19 19 21 23 24 24 23 23 24
97 95 93 92 91 89 88 88 88 87 87 86 85 85 82 79 76 72 68 62 56 52 51 51 50 47 44 42 44 48 52 55 52 47 46 44 40 38 41 42 40 37 33 31 30 28 26 24 23 24 25 25 26 27 30 32 32 32 30 29 30 30 29 28 28 28 27 26 25 24 24 24 24 24 23 21 20 20 21 23 25 25 24 25 26
94 92 90 90 89 87 87 87 86 84 82 82 80 79 76 73 71 65 58 53 49 52 53 53 53 50 45 43 45 50 54 55 52 46 46 48 44 43 45 45 43 39 34 31 28 26 24 24 25 26 25 26 28 30 32 34 34 33 31 29 30 30 30 29 29 29 29 28 27 25 25 25 25 26 25 23 21 21 22 23 25 25 26 27 27
90 88 87 87 87 86 85 85 83 81 79 79 77 76 74 70 66 59 52 50 51 55 53 52 51 49 46 46 50 53 54 53 50 47 48 50 51 52 50 46 45 42 35 31 27 25 24 25 27 27 27 29 30 32 34 35 35 34 32 31 31 31 31 30 30 30 30 29 29 27 26 25 27 28 27 26 24 22 22 24 26 27 28 29 28
87 86 85 85 85 84 85 85 84 82 81 81 78 75 70 64 59 54 52 54 57 55 50 49 51 50 51 53 54 53 52 51 49 49 49 48 49 50 46 43 44 39 34 30 27 26 26 26 27 28 29 31 32 33 34 35 36 35 34 32 31 31 31 31 31 31 31 31 31 29 28 27 28 29 29 28 26 24 24 25 27 28 29 29 27
84 83 83 83 83 82 82 82 81 79 78 76 72 68 63 60 58 57 57 57 58 55 50 51 53 54 55 54 53 52 50 50 49 48 47 44 41 40 39 39 38 34 32 30 28 28 28 28 29 30 31 33 34 35 35 36 36 36 35 33 32 32 32 32 32 33 32 33 33 32 30 28 29 31 30 29 27 26 25 25 27 29 29 27 26
81 80 80 78 77 76 75 76 76 73 71 69 64 62 62 62 62 63 61 55 56 57 53 53 53 53 54 53 52 51 50 50 49 45 42 39 37 35 33 33 32 31 31 31 30 30 30 31 31 32 34 36 37 37 37 37 37 37 36 35 34 33 33 33 33 34 34 35 35 33 31 30 31 32 31 30 29 27 27 27 28 29 28 26 25
76 72 70 65 64 66 63 67 73 69 64 63 61 62 68 69 69 70 66 58 59 60 55 54 55 55 56 54 51 52 52 50 46 41 38 38 36 32 30 30 30 31 31 31 32 32 33 34 35 36 37 38 38 38 38 37 38 38 38 37 36 36 35 35 35 35 35 35 35 33 32 32 33 34 33 31 29 28 28 28 29 29 27 26 25
69 64 62 58 60 64 57 58 69 72 67 66 66 70 75 75 73 73 69 65 62 60 56 56 58 59 58 54 51 51 51 49 46 42 40 38 34 33 32 31 32 33 34 35 37 38 38 38 38 38 38 37 36 35 35 36 38 39 41 40 40 39 38 37 36 36 35 35 34 33 32 32 34 34 34 32 30 29 30 30 30 29 27 26 25
61 60 61 60 63 67 64 61 68 77 76 73 73 74 75 74 72 71 69 65 60 57 57 58 59 57 54 52 50 49 50 48 47 45 43 41 39 38 37 37 39 40 42 43 43 42 40 38 36 34 32 31 31 32 34 37 41 43 45 45 43 42 41 39 38 37 36 35 34 32 32 33 34 35 34 33 32 31 31 31 30 29 28 26 26
59 59 60 59 61 65 68 69 72 78 78 74 72 71 71 70 69 69 67 64 59 56 58 60 61 56 52 51 51 50 50 49 48 45 44 46 46 46 47 48 49 49 48 47 45 42 38 33 30 27 27 29 31 34 38 41 45 47 48 47 46 44 42 40 39 38 37 36 34 32 32 34 35 35 34 34 33 32 32 31 31 30 29 27 27
59 58 58 59 61 63 66 69 71 73 72 70 70 69 68 68 67 67 66 65 64 64 65 64 64 61 56 55 55 55 53 48 46 43 42 45 47 48 50 52 52 51 48 46 41 35 29 25 25 25 27 32 35 39 42 44 45 46 48 48 47 46 43 41 40 39 37 35 33 32 32 34 35 35 35 35 34 33 32 31 31 31 30 29 28
56 55 57 58 58 60 62 65 67 68 68 68 68 67 67 66 66 66 66 68 69 70 71 68 67 65 61 60 61 60 51 44 42 41 41 43 44 46 47 47 46 44 41 37 32 26 23 22 25 28 30 35 39 41 42 42 44 45 47 48 48 47 45 42 40 39 37 35 33 33 34 35 36 36 35 35 35 33 31 31 32 31 30 30 29
53 52 52 53 53 54 58 62 64 65 65 65 65 65 65 64 64 65 66 68 69 69 69 67 67 65 64 64 60 53 43 39 39 38 38 40 41 41 42 41 38 34 31 29 26 23 23 24 27 31 33 38 40 40 39 39 41 44 46 47 48 48 45 42 40 39 37 35 34 34 35 36 37 37 37 36 34 31 30 31 31 31 31 31 30
54 52 49 49 50 52 54 57 59 61 62 62 62 62 62 62 62 63 65 66 67 67 67 67 66 63 61 60 53 45 40 39 39 37 37 36 35 35 34 32 28 25 24 24 24 24 25 26 29 33 35 37 36 36 36 37 39 41 43 45 47 47 45 42 40 38 37 36 35 35 34 36 38 38 38 36 33 30 30 30 31 31 32 31 30
58 57 56 54 54 54 55 56 56 56 57 57 58 59 60 60 60 61 62 63 64 66 66 66 66 64 60 57 52 48 48 48 44 39 36 32 29 29 27 23 22 21 21 22 24 25 27 30 33 35 35 34 33 35 35 35 37 39 40 42 43 44 43 41 39 38 37 36 35 35 35 36 38 38 38 35 32 31 31 31 32 32 32 31 31
61 60 60 59 57 55 55 55 53 51 52 53 55 57 58 59 59 59 60 61 62 63 63 64 65 64 61 58 55 53 52 48 41 34 29 25 24 23 21 20 22 22 22 24 26 28 31 33 36 36 35 34 34 35 34 33 35 36 36 38 39 40 40 39 38 38 38 37 37 37 37 37 37 36 36 33 31 31 32 32 32 33 32 32 31
61 61 61 60 58 57 56 55 54 55 56 56 56 56 57 58 59 59 59 59 59 60 60 60 60 57 53 48 43 40 36 31 26 22 21 20 20 20 20 22 23 24 26 28 30 33 36 38 39 38 36 35 34 33 33 32 33 34 34 34 35 36 37 38 38 39 39 39 39 39 38 37 35 34 34 32 31 32 32 32 32 32 33 32 32
60 60 60 59 59 60 60 61 62 62 61 59 57 56 56 57 57 57 57 57 57 57 56 54 51 46 38 32 27 25 24 22 20 20 20 20 21 22 22 23 25 27 29 32 35 38 40 42 41 39 39 36 33 33 32 32 32 32 32 31 32 33 34 36 37 38 38 39 39 38 38 37 35 34 33 32 31 32 32 32 32 32 33 33 32
58 57 57 57 57 58 59 60 60 59 58 57 55 55 55 55 55 55 55 54 52 50 47 41 36 32 27 25 25 25 25 24 24 24 24 23 24 24 25 26 28 30 33 36 39 41 43 44 43 41 41 38 34 32 30 31 30 30 30 30 30 31 32 34 35 35 35 36 37 37 37 36 36 35 33 32 31 31 31 32 32 33 33 33 33
54 53 52 52 53 54 55 55 55 55 55 54 53 52 53 53 52 50 48 44 41 35 32 29 28 28 27 27 29 30 29 28 28 28 28 27 27 27 28 30 31 33 36 39 42 44 46 45 44 44 43 38 34 30 26 25 25 25 26 27 29 30 31 32 34 34 34 35 36 36 36 36 35 34 33 32 32 32 32 33 34 34 34 34 34
49 48 49 49 50 51 52 53 53 52 51 50 49 49 49 48 46 44 39 35 32 28 27 29 30 31 32 32 33 34 33 31 31 30 30 30 30 31 32 33 35 37 39 42 44 46 47 47 47 47 43 37 32 28 24 22 22 22 23 24 26 29 31 32 33 33 33 33 34 34 34 33 33 32 31 31 32 33 34 35 35 36 35 35 35
48 47 48 48 48 49 50 49 49 48 47 45 45 44 44 43 40 37 35 32 32 32 34 35 35 36 36 36 36 36 35 34 33 33 33 33 34 35 36 37 39 41 43 45 47 49 49 50 50 47 42 36 32 28 24 24 24 24 24 24 25 27 30 32 32 33 32 31 31 31 30 30 31 32 32 32 33 34 35 35 35 36 36 35 36
48 47 47 46 47 47 47 46 45 44 43 42 40 39 38 37 36 35 34 34 34 36 37 38 38 38 38 37 37 36 36 35 35 35 36 37 38 39 40 42 43 45 47 49 50 51 52 52 49 45 40 36 32 28 25 25 26 26 27 28 27 27 29 31 32 32 32 31 30 29 30 31 31 32 33 34 34 35 37 38 38 37 36 36 37
46 45 44 44 45 46 45 44 43 41 40 39 38 36 35 34 34 35 35 36 37 38 38 38 38 39 38 38 39 38 38 38 38 40 40 41 42 43 44 45 47 49 50 52 53 53 51 49 45 41 38 34 31 28 25 25 26 27 28 29 28 28 28 29 31 32 31 32 32 30 31 33 35 35 35 35 36 36 37 39 40 39 39 38 37
42 42 42 43 43 44 43 42 41 40 38 37 35 34 33 32 32 32 33 35 37 39 40 40 40 40 41 41 42 42 42 42 43 44 45 45 46 47 48 49 50 52 53 54 53 50 47 44 40 37 34 31 29 27 24 24 25 28 31 31 30 30 30 30 32 33 33 32 33 32 31 33 37 39 38 38 37 36 36 37 38 39 41 40 39
40 40 40 40 41 41 40 40 40 40 38 36 35 34 33 32 30 30 30 32 35 37 40 42 43 44 45 45 44 44 45 45 46 47 48 49 49 50 51 52 53 54 54 52 49 45 42 39 36 34 31 29 27 25 24 23 24 27 30 33 33 34 34 33 33 35 37 36 35 35 33 33 36 39 40 40 40 38 36 36 37 39 41 42 42
37 38 38 37 35 32 33 36 39 41 40 36 35 34 33 32 30 29 29 30 32 33 36 38 41 42 44 46 47 47 48 48 49 51 51 52 52 53 53 53 53 51 49 46 44 41 38 35 33 30 28 27 25 24 23 23 23 24 27 31 33 35 36 36 35 34 36 39 39 39 38 36 35 35 37 39 40 40 37 35 35 36 38 41 43
35 35 35 35 32 27 27 30 34 39 40 38 37 35 33 30 28 28 29 30 32 33 34 35 36 37 39 41 44 45 46 47 48 49 50 50 50 50 49 49 47 46 43 41 40 37 34 32 30 28 26 25 23 22 22 22 22 23 25 27 30 33 35 37 38 36 35 35 38 40 41 41 39 37 36 36 37 38 37 35 35 35 35 36 39
33 34 34 34 33 32 32 35 39 42 39 38 39 37 34 31 29 28 29 31 33 34 34 34 34 35 36 38 39 41 42 42 43 44 45 45 45 45 45 44 42 41 39 37 35 33 31 29 28 26 25 24 22 21 20 21 21 22 23 24 26 28 31 34 36 37 37 36 36 38 40 41 40 39 38 39 39 39 38 37 37 36 35 34 35
35 36 36 34 32 33 35 37 41 42 40 38 37 36 35 34 32 31 31 33 34 35 34 34 34 35 37 38 39 40 41 41 42 43 43 44 43 43 42 40 37 36 35 33 31 29 27 26 25 24 23 22 21 19 19 19 20 21 21 22 24 25 27 30 32 34 36 38 40 41 42 41 41 40 40 40 40 41 41 40 39 38 36 35 35
40 39 36 32 31 32 35 37 38 38 39 40 39 35 34 33 32 32 32 33 34 34 34 33 34 35 37 39 40 40 40 41 41 42 42 42 41 40 38 35 33 32 32 31 29 26 25 24 23 22 21 20 19 18 18 18 19 20 20 21 21 22 24 26 28 31 32 35 38 42 44 45 45 44 43 41 40 40 42 42 41 40 38 37 37
43 40 36 33 33 34 35 36 37 36 37 38 39 38 37 36 36 35 33 34 35 36 36 37 37 37 37 38 39 40 39 39 39 39 40 40 39 37 34 32 30 30 30 29 27 25 24 23 22 20 19 19 18 17 18 18 19 19 20 20 20 21 21 23 25 28 29 31 34 37 39 43 46 47 47 44 42 41 42 45 44 41 40 39 39
39 38 37 37 38 38 39 40 38 36 36 36 37 39 42 43 44 42 39 39 40 42 43 44 44 42 40 40 41 40 38 37 37 37 37 36 35 33 31 30 29 29 28 28 27 25 23 22 20 20 19 18 18 17 17 18 19 19 20 20 20 20 20 21 22 24 26 28 32 34 34 35 39 42 45 45 44 42 41 43 44 41 40 39 40
Wind_Direction
294 295 296 297 298 298 299 299 300 301 302 302 302 301 300 299 299 299 299 299 299 299 300 301 301 301 302 302 302 301 300 300 299 299 299 299 299 299 298 298 297 296 296 297 298 299 298 297 297 296 296 296 296 296 298 299 301 303 305 306 306 307 306 306 305 304 305 306 305 304 303 304 304 305 305 303 302 300 298 294 286 276 271 271 273
293 294 295 296 297 298 299 299 299 301 301 301 300 299 298 298 298 298 298 298 299 300 300 300 300 300 300 301 301 300 300 299 299 299 300 300 300 299 299 299 298 298 298 297 298 298 299 299 298 298 298 299 298 298 299 300 301 303 305 305 305 305 305 303 303 304 305 305 303 302 301 302 302 303 303 301 300 298 295 289 281 273 270 272 274
291 293 294 295 297 298 298 298 299 300 300 299 299 298 297 297 297 297 298 298 299 299 299 299 299 298 298 299 299 299 299 299 299 299 300 300 300 300 300 300 299 299 299 299 299 299 300 300 300 299 299 299 299 299 299 300 302 303 304 304 304 304 303 301 302 303 304 303 301 299 299 300 301 302 300 299 298 295 291 283 276 271 271 272 274
290 292 294 295 296 297 297 298 299 299 298 298 297 296 296 296 296 296 297 297 298 298 297 297 297 297 297 298 298 298 298 299 299 299 300 300 299 300 300 300 300 300 300 300 300 299 299 299 299 299 298 298 298 299 300 300 302 303 303 303 303 302 301 300 302 303 303 301 298 297 298 299 300 300 297 296 295 291 285 277 272 270 271 273 275
289 291 293 295 295 296 297 298 298 298 297 296 296 295 295 295 295 296 296 296 296 296 295 295 296 296 296 296 297 298 298 298 299 299 299 299 299 299 300 300 300 300 300 300 300 299 299 298 298 297 297 297 298 298 299 300 301 301 302 302 301 300 300 300 302 303 301 298 296 296 297 299 299 297 295 294 291 285 278 272 271 270 271 274 276
288 291 293 294 295 296 297 297 297 297 296 295 295 295 294 294 295 295 295 295 295 294 294 294 295 295 295 296 296 297 297 298 298 298 298 299 298 299 299 299 299 299 299 300 300 300 299 298 297 296 296 297 297 298 298 299 301 301 301 300 299 299 300 301 302 302 299 296 294 295 297 299 297 294 293 291 286 279 272 269 270 270 273 276 277
287 290 292 294 295 295 296 296 296 296 295 295 294 294 293 293 294 294 294 294 293 293 293 294 294 295 295 295 296 296 297 297 297 297 298 298 297 297 297 298 298 299 299 300 300 299 299 298 296 295 296 296 297 297 298 300 300 300 299 298 298 299 300 301 302 301 298 295 294 296 298 298 295 292 291 288 281 273 269 268 268 269 273 276 277
286 289 291 293 294 295 295 295 295 295 294 293 292 292 292 292 292 292 292 292 292 292 292 293 293 294 294 294 295 295 295 296 296 297 296 296 296 296 297 297 298 299 300 300 299 299 298 296 295 295 296 295 296 297 298 299 299 299 297 296 298 299 300 300 301 300 297 294 295 296 298 298 293 290 289 284 277 271 268 267 266 268 271 275 278
285 288 291 292 293 294 294 294 294 293 292 291 291 291 291 291 291 291 290 290 290 290 290 291 292 292 293 293 293 293 294 294 295 295 295 295 295 295 296 297 298 298 299 300 299 297 295 293 294 295 295 295 296 296 297 297 297 297 295 296 297 298 298 299 300 298 296 294 294 296 298 296 289 287 287 282 275 270 268 265 265 266 268 274 278
285 288 290 292 293 293 293 293 292 291 291 290 290 290 290 290 290 289 289 289 288 288 289 290 291 291 291 292 292 292 293 293 294 294 294 294 294 295 296 296 297 298 298 299 297 295 293 293 294 294 295 296 296 295 296 295 295 295 294 295 296 295 295 297 299 296 294 293 293 294 296 292 284 284 284 280 275 272 268 264 264 263 265 272 277
284 287 289 291 292 292 292 291 290 290 289 289 289 289 289 288 288 288 288 287 287 287 288 289 290 290 291 291 291 292 293 293 293 294 294 294 294 295 295 295 295 296 298 297 293 292 293 293 294 294 295 295 294 294 294 293 293 293 293 295 294 292 293 297 296 293 293 291 291 293 295 289 279 281 283 281 276 273 269 265 264 261 262 270 276
284 287 289 290 290 290 290 289 289 288 288 288 288 287 286 286 286 286 287 286 286 287 288 289 290 290 291 292 292 293 293 293 293 293 293 294 294 294 294 292 292 294 295 292 289 291 293 293 294 295 294 293 293 293 292 293 292 291 293 294 292 291 293 295 293 291 291 289 290 292 293 285 276 280 282 282 280 275 270 266 264 260 260 267 274
284 286 288 289 289 289 288 287 287 287 287 287 286 286 285 285 286 286 286 286 287 288 289 290 291 291 292 293 293 293 293 293 292 292 293 294 293 293 292 290 289 290 291 288 286 290 292 292 294 293 291 291 291 291 291 292 292 292 293 292 291 291 292 293 290 288 288 287 288 290 290 281 274 278 281 283 282 278 273 266 263 260 260 264 270
283 285 287 287 287 287 287 286 286 286 286 286 285 285 285 285 286 286 286 288 289 290 292 292 293 293 293 293 293 292 292 292 291 290 292 292 291 290 288 287 287 287 288 286 285 288 291 292 292 290 289 289 290 291 291 292 293 294 292 291 291 291 291 290 285 284 284 284 285 288 288 277 272 276 279 284 283 280 275 265 261 261 261 262 267
283 285 286 286 286 286 286 286 285 285 285 285 285 285 285 286 286 287 288 289 291 293 294 294 294 294 294 293 291 291 290 290 290 290 290 289 289 287 284 283 283 284 285 286 286 288 290 290 289 287 288 288 289 291 291 293 296 296 293 291 291 290 289 287 281 280 281 281 282 285 285 274 268 272 277 284 284 281 277 266 260 260 261 263 265
283 284 285 285 284 284 285 285 285 284 285 285 285 285 286 287 287 288 290 291 293 294 294 295 295 294 292 291 290 289 287 287 290 291 288 286 286 285 281 280 279 281 283 284 286 288 288 287 285 286 288 289 291 291 291 294 298 298 297 294 292 290 288 285 279 277 277 277 279 283 282 273 266 268 275 285 287 284 278 268 261 260 261 263 265
283 283 283 283 283 283 284 284 285 285 285 285 285 286 286 287 288 289 291 292 293 294 295 296 294 291 288 288 288 286 284 287 291 289 284 285 287 286 281 279 279 279 281 283 284 285 284 283 283 286 289 290 290 289 291 295 297 298 298 296 294 290 287 284 279 275 274 273 275 279 278 271 265 265 273 284 288 285 279 269 262 260 261 264 267
281 282 282 282 283 284 284 284 285 285 285 285 286 286 287 288 290 291 292 293 294 296 297 296 294 289 287 284 280 283 287 289 291 288 282 283 290 292 287 281 280 279 280 282 282 280 280 280 282 287 290 289 286 286 291 294 296 297 297 296 294 291 287 284 279 274 273 271 272 275 274 268 265 264 270 281 287 287 279 270 263 261 262 266 271
280 281 281 282 283 284 284 284 284 284 285 286 286 287 288 289 291 293 294 294 295 298 297 297 295 292 288 282 280 284 289 291 291 286 279 280 287 295 294 286 281 280 281 283 279 275 276 277 281 286 287 286 284 287 291 293 294 295 295 294 292 290 287 283 279 275 273 272 271 272 271 267 263 262 267 277 285 287 280 270 264 262 266 272 276
279 280 281 282 283 284 284 284 284 284 285 285 286 287 288 290 292 294 293 290 294 298 295 295 296 292 286 281 283 288 291 294 292 283 276 277 281 290 294 287 282 280 281 282 277 272 272 276 282 285 285 285 286 289 292 293 292 291 292 292 291 288 286 282 278 275 273 272 272 271 269 265 262 260 264 273 280 284 280 271 265 265 271 278 278
279 280 281 282 283 283 283 283 283 284 284 285 286 286 287 290 291 291 289 284 290 296 292 291 293 291 286 283 286 290 294 296 294 286 279 277 278 284 289 284 280 279 280 280 274 270 272 277 283 285 286 288 289 292 293 292 290 289 289 290 289 287 285 283 279 275 273 271 271 271 268 263 261 260 262 268 274 280 280 272 267 268 274 280 279
280 281 281 281 282 282 282 282 282 283 283 283 284 285 287 289 287 285 284 282 287 293 288 286 288 288 289 289 289 291 293 296 297 292 287 285 283 284 285 280 277 277 277 275 272 273 275 279 283 286 288 290 292 293 293 291 288 287 287 288 287 286 284 282 279 274 271 269 269 269 267 262 260 260 262 266 271 276 278 273 269 270 275 279 278
280 281 281 281 282 282 282 282 282 283 282 283 285 286 286 285 283 282 284 285 288 289 282 282 286 288 290 290 289 290 292 295 296 294 293 293 290 286 280 276 275 274 274 274 274 276 278 281 284 286 289 292 294 295 294 291 288 286 286 287 287 286 283 281 277 272 268 265 266 267 265 262 259 260 262 266 270 274 277 273 270 272 275 276 275
280 280 282 283 283 283 283 283 282 282 283 285 286 285 281 280 281 283 287 287 286 285 280 279 285 287 289 288 288 289 290 293 294 293 292 291 286 280 275 273 273 273 275 278 279 281 283 285 286 288 291 293 295 295 293 290 287 286 286 287 288 287 284 279 274 269 265 262 262 262 262 260 258 259 263 267 270 273 275 272 270 272 273 274 273
279 279 281 283 283 284 287 285 283 282 283 284 283 280 279 280 283 285 286 283 281 282 278 280 284 287 288 287 287 288 289 291 291 289 284 280 277 273 271 271 271 275 280 283 285 286 287 288 288 288 290 292 293 292 291 287 285 285 287 288 287 286 283 278 272 267 264 261 259 257 258 258 257 258 263 267 270 272 275 272 268 270 272 273 271
277 276 277 276 276 279 281 280 282 282 281 281 279 278 281 283 285 285 284 282 280 278 277 282 285 285 284 284 287 289 288 289 288 286 278 272 271 269 270 271 273 278 282 285 287 288 289 289 288 289 290 290 290 289 287 285 285 286 286 286 285 284 280 275 270 266 263 260 256 253 255 257 256 259 262 266 269 272 275 271 267 268 270 271 270
274 274 274 272 273 275 274 272 275 278 279 280 280 279 281 282 283 282 282 281 279 275 277 283 284 282 282 284 288 288 286 287 286 283 277 270 267 267 270 272 275 281 284 286 289 291 293 291 290 290 288 287 286 285 284 286 288 287 285 284 282 280 276 272 268 265 262 259 254 250 251 254 256 258 261 264 267 271 274 270 265 266 267 268 268
273 274 273 271 269 270 271 270 270 274 278 280 280 280 280 280 280 280 279 277 274 274 278 282 281 280 282 288 291 290 287 285 285 283 277 272 268 267 270 274 277 282 285 288 291 293 293 291 289 286 285 286 287 289 290 291 290 286 283 281 279 276 273 269 266 263 261 259 254 248 247 251 254 257 258 262 265 268 271 267 263 264 265 266 267
275 275 274 272 270 269 270 270 271 273 277 278 279 279 279 280 280 279 277 273 271 274 277 280 279 277 282 288 290 290 287 283 283 282 277 275 274 273 274 276 279 282 286 288 290 289 287 285 283 283 287 291 294 295 294 293 288 283 280 279 277 274 271 267 264 261 260 258 253 245 243 248 252 254 255 258 263 267 267 263 263 263 263 265 267
277 278 277 276 274 273 273 272 273 274 275 277 277 278 279 279 280 279 277 274 273 274 276 277 276 276 280 285 288 289 286 281 280 279 278 279 281 281 280 282 284 287 288 287 284 279 277 279 282 287 294 297 296 295 293 289 284 281 280 278 275 273 270 266 262 260 258 254 249 242 240 244 248 250 253 257 262 264 261 260 262 261 261 265 265
280 280 279 277 276 276 274 273 273 274 274 275 276 277 278 279 279 278 277 276 276 276 277 276 275 277 280 284 287 286 281 279 280 282 283 285 286 286 287 288 289 287 284 280 275 274 279 284 289 293 298 300 297 295 293 287 282 280 279 277 274 272 269 265 259 257 255 251 246 243 242 243 245 248 252 256 260 260 258 259 260 259 261 264 264
276 277 276 277 278 277 277 276 273 273 274 275 276 277 278 278 278 277 277 277 277 277 276 275 275 278 281 284 284 282 282 283 284 286 287 288 288 287 288 289 284 279 276 276 278 282 287 289 292 296 300 301 297 297 294 287 283 279 277 275 273 271 269 263 257 252 251 249 246 244 245 246 246 249 252 255 257 256 257 258 257 257 261 264 264
272 273 273 275 278 278 278 277 275 274 275 276 277 278 278 277 277 276 276 276 277 277 276 276 276 278 280 280 279 281 284 286 287 288 287 285 282 281 284 279 269 267 271 278 283 286 289 290 295 298 301 303 301 300 295 288 284 280 275 274 272 270 267 261 254 249 248 248 247 246 247 248 249 250 252 253 252 252 255 256 255 256 260 262 263
273 272 272 272 274 276 276 276 277 277 279 280 280 279 279 278 277 276 276 276 277 277 278 278 279 280 281 280 280 281 283 285 287 285 281 276 270 270 271 264 260 262 269 279 283 286 288 291 297 300 303 307 306 302 297 291 286 281 276 272 269 267 263 257 251 247 246 245 246 246 247 248 248 249 249 249 248 249 252 253 254 256 259 261 262
272 272 272 271 270 270 272 275 278 280 282 283 282 281 280 279 278 277 277 277 278 278 279 280 281 283 285 284 282 281 280 278 274 266 262 261 260 262 261 260 262 265 272 280 283 285 288 293 298 301 306 311 309 303 299 295 288 281 276 271 267 263 258 253 248 246 245 245 246 247 247 246 245 246 247 246 245 246 249 251 253 255 258 260 261
272 271 271 271 269 268 270 273 277 279 281 281 281 280 279 278 277 277 277 277 278 279 281 282 284 284 281 277 271 267 265 258 248 243 246 251 256 260 262 264 268 273 279 282 285 287 290 295 298 301 308 313 311 305 299 295 290 281 275 270 265 260 255 250 247 245 244 245 246 245 244 243 243 245 247 244 243 245 245 247 250 253 256 258 259
272 272 271 271 271 270 270 272 274 276 277 278 279 278 278 277 277 277 278 279 280 282 282 281 279 273 264 260 259 255 254 251 244 242 246 252 257 262 267 271 276 281 285 286 287 290 293 296 298 303 310 315 313 305 297 294 290 282 275 269 263 258 252 248 244 241 241 243 244 244 243 244 245 247 245 241 241 244 244 245 247 250 253 257 258
273 273 273 273 272 272 271 271 272 274 276 277 278 278 278 279 279 280 281 282 282 280 276 268 259 255 251 251 255 255 253 249 246 246 250 256 263 268 274 278 282 285 288 289 289 291 293 295 299 305 312 317 313 303 296 295 293 285 277 270 263 256 249 244 241 239 239 242 244 245 246 246 247 246 243 240 240 243 245 246 246 247 251 254 257
275 276 276 276 274 273 272 272 274 277 278 279 279 280 280 281 281 281 280 276 272 264 256 251 248 251 251 250 254 256 255 252 250 252 256 261 268 273 278 280 283 285 287 289 290 292 294 296 301 307 313 316 307 295 291 289 288 286 279 271 264 257 250 244 240 238 239 242 245 246 245 244 244 243 242 241 241 242 244 246 246 248 252 253 254
276 277 277 277 276 276 276 276 277 279 280 281 282 283 283 282 280 277 272 266 261 255 251 251 250 253 254 253 255 256 256 256 256 259 262 266 270 274 278 280 282 284 286 289 290 293 295 299 305 309 312 313 300 288 285 279 276 275 273 269 261 254 248 243 239 236 237 240 243 245 245 243 243 243 244 243 243 242 242 244 245 248 253 253 251
275 277 278 278 279 279 279 279 280 281 283 284 284 284 283 280 276 271 265 261 258 254 255 256 256 257 258 256 256 257 258 261 263 266 268 270 273 276 278 280 282 284 286 288 291 294 299 303 307 309 311 309 297 287 281 272 268 267 267 266 261 254 246 242 239 237 237 239 242 244 246 246 246 246 246 246 245 243 241 242 243 246 249 251 250
275 277 278 279 279 280 282 283 284 284 285 286 286 285 283 279 275 271 267 263 260 258 258 259 259 258 260 259 258 261 264 266 269 270 272 274 276 277 279 280 282 284 286 289 293 298 302 305 307 308 308 306 296 287 279 269 263 259 260 260 258 255 250 243 238 236 237 240 242 243 245 246 247 248 248 247 246 244 242 243 245 247 247 248 249
274 276 277 279 280 283 285 287 289 289 288 288 288 288 286 283 279 274 270 264 260 260 259 259 258 257 260 261 260 262 266 268 270 273 275 277 278 279 280 281 283 286 290 293 297 300 303 305 305 304 303 301 294 286 278 269 261 254 252 253 251 251 250 245 239 235 234 237 241 243 243 243 243 245 247 247 247 246 245 246 248 249 248 247 248
275 276 278 280 285 289 292 293 293 292 290 290 289 287 286 285 283 278 273 268 264 263 261 259 258 259 261 262 262 264 267 269 272 274 277 278 279 281 283 284 286 290 293 296 298 301 302 302 301 299 297 295 290 284 277 272 265 256 252 250 249 249 249 248 244 238 234 235 239 242 243 242 240 240 242 244 246 248 248 248 249 250 249 248 249
278 280 282 283 287 293 296 297 296 292 290 288 286 284 283 282 281 280 278 275 273 270 266 264 263 263 264 264 264 267 270 272 274 276 279 280 282 284 286 287 289 292 294 296 297 299 300 298 297 295 293 291 288 283 278 274 271 265 257 252 250 249 248 249 248 244 240 238 239 241 242 242 241 241 240 240 242 244 246 247 247 249 249 249 250
281 281 280 279 279 275 271 274 277 279 282 284 282 281 281 279 276 279 281 281 277 274 272 271 271 271 271 270 269 271 272 274 276 277 279 281 283 285 286 288 290 292 293 294 295 296 296 295 293 291 291 289 286 281 277 275 273 271 266 260 255 251 248 248 248 247 244 241 241 242 242 242 242 244 243 241 241 243 245 246 248 249 249 249 250
280 277 273 270 269 264 258 255 254 257 263 271 276 278 279 279 278 281 286 287 284 279 277 277 278 278 277 276 275 275 276 277 278 279 280 282 284 285 287 289 290 290 290 290 291 292 291 290 289 289 289 288 285 281 276 274 274 274 272 269 264 259 253 249 248 248 246 243 241 242 243 243 242 243 245 246 248 249 250 251 250 249 249 249 249
275 271 269 267 267 265 263 260 258 258 257 260 267 274 276 276 278 280 285 289 289 286 283 282 282 281 279 277 277 278 279 280 281 282 283 284 285 286 287 288 288 287 286 286 285 286 286 285 285 286 287 287 284 280 276 274 275 276 276 274 270 265 260 254 250 249 248 245 243 242 243 244 244 244 245 248 251 253 253 252 250 249 248 248 248
269 265 265 267 269 268 267 265 265 263 263 262 264 268 268 266 271 276 280 283 285 286 286 286 284 282 280 279 279 280 281 282 284 285 286 286 286 286 285 285 284 283 282 281 280 281 280 279 279 281 282 284 284 282 278 275 274 275 277 278 276 270 264 257 251 249 249 248 246 245 244 244 244 244 245 246 247 249 250 250 248 248 247 246 246
264 267 269 271 271 270 269 269 268 263 262 264 263 262 261 258 263 271 274 274 276 279 281 281 282 284 286 286 286 286 285 285 285 284 284 284 283 283 283 283 282 280 279 278 277 277 275 274 274 276 278 280 282 283 281 279 275 274 274 276 278 276 271 263 255 251 248 246 245 245 245 245 244 244 245 245 243 243 246 248 249 248 246 245 243
258 265 270 271 269 269 270 271 268 261 258 259 258 257 257 258 263 269 271 270 271 273 275 276 278 282 286 288 290 290 288 286 286 284 283 282 282 283 284 284 282 280 279 278 277 277 274 271 270 273 276 279 281 283 284 284 281 278 275 274 275 277 276 272 266 258 251 244 242 244 246 247 245 244 243 242 240 238 241 246 249 246 244 243 240
Height
10893 10892 10892 10892 10891 10890 10890 10889 10887 10886 10886 10885 10884 10881 10879 10876 10875 10874 10874 10873 10872 10870 10869 10868 10867 10867 10866 10866 10865 10864 10862 10861 10859 10857 10856 10855 10854 10853 10851 10849 10849 10847 10846 10844 10842 10840 10838 10836 10834 10833 10831 10830 10829 10829 10827 10826 10825 10824 10822 10820 10819 10817 10815 10813 10812 10810 10809 10807 10806 10804 10803 10802 10801 10800 10799 10799 10799 10799 10799 10799 10799 10799 10799 10799 10799
10888 10887 10886 10886 10885 10885 10885 10884 10883 10882 10881 10879 10878 10876 10873 10871 10870 10869 10868 10867 10866 10865 10864 10863 10863 10862 10862 10861 10860 10858 10857 10856 10855 10852 10851 10850 10849 10848 10847 10845 10843 10842 10840 10838 10836 10834 10832 10830 10828 10827 10825 10823 10823 10823 10822 10821 10820 10819 10817 10815 10814 10812 10810 10809 10808 10807 10805 10804 10802 10801 10800 10799 10798 10797 10796 10796 10796 10796 10796 10796 10796 10797 10797 10797 10797
10883 10881 10880 10880 10880 10879 10879 10879 10878 10877 10876 10874 10872 10870 10868 10866 10865 10863 10862 10861 10861 10860 10859 10859 10858 10857 10857 10856 10855 10853 10851 10850 10849 10847 10846 10844 10843 10842 10841 10840 10837 10836 10834 10833 10831 10829 10827 10824 10822 10821 10819 10818 10817 10817 10816 10816 10815 10814 10812 10811 10809 10808 10806 10805 10804 10803 10802 10800 10799 10798 10797 10796 10795 10794 10793 10793 10793 10793 10793 10794 10794 10794 10795 10795 10795
10877 10876 10875 10874 10874 10873 10873 10874 10874 10872 10870 10868 10866 10863 10861 10860 10859 10859 10857 10856 10856 10855 10854 10853 10853 10853 10852 10851 10849 10848 10846 10845 10843 10842 10840 10838 10837 10836 10835 10834 10832 10830 10828 10826 10825 10823 10821 10819 10817 10815 10814 10813 10812 10812 10811 10810 10810 10809 10807 10806 10805 10803 10802 10801 10800 10799 10798 10797 10796 10794 10793 10792 10792 10791 10790 10790 10790 10790 10791 10791 10792 10792 10792 10793 10793
10872 10871 10869 10868 10867 10867 10868 10869 10868 10866 10864 10862 10860 10857 10855 10854 10854 10854 10853 10851 10850 10849 10848 10848 10848 10848 10847 10846 10844 10843 10841 10839 10838 10837 10835 10833 10831 10830 10829 10828 10826 10824 10822 10820 10819 10817 10816 10814 10812 10810 10809 10808 10807 10807 10807 10806 10805 10804 10803 10801 10800 10799 10798 10797 10796 10795 10794 10793 10792 10791 10790 10790 10789 10788 10788 10787 10787 10788 10788 10789 10790 10790 10790 10791 10791
10867 10865 10864 10862 10861 10861 10862 10862 10862 10860 10858 10856 10853 10851 10850 10848 10848 10848 10847 10846 10844 10843 10843 10843 10843 10843 10842 10841 10839 10838 10836 10834 10833 10831 10829 10827 10825 10824 10823 10822 10820 10818 10816 10814 10813 10811 10810 10808 10806 10805 10804 10803 10802 10802 10802 10801 10801 10800 10798 10797 10796 10796 10795 10794 10793 10792 10791 10790 10789 10788 10787 10787 10786 10786 10785 10785 10785 10786 10786 10787 10788 10788 10788 10788 10789
10861 10860 10859 10857 10856 10856 10856 10856 10855 10854 10851 10849 10847 10845 10844 10843 10842 10842 10841 10840 10838 10837 10837 10837 10838 10837 10837 10836 10834 10833 10831 10829 10827 10826 10824 10822 10820 10818 10817 10816 10814 10812 10810 10808 10807 10805 10804 10803 10801 10800 10799 10798 10797 10797 10797 10797 10796 10796 10794 10793 10793 10792 10791 10790 10789 10789 10788 10787 10786 10785 10785 10784 10784 10783 10783 10783 10783 10783 10784 10785 10786 10786 10786 10786 10787
10856 10855 10854 10853 10852 10851 10850 10849 10848 10847 10845 10843 10841 10840 10839 10837 10837 10837 10836 10835 10832 10831 10832 10832 10833 10832 10831 10830 10829 10827 10825 10824 10822 10820 10818 10816 10814 10812 10811 10810 10808 10806 10804 10803 10801 10800 10799 10797 10796 10795 10794 10794 10793 10793 10793 10793 10792 10792 10791 10789 10789 10789 10788 10787 10786 10785 10785 10784 10783 10782 10782 10782 10781 10781 10780 10780 10781 10781 10782 10783 10783 10784 10784 10784 10784
10851 10850 10849 10848 10846 10845 10844 10843 10842 10840 10839 10837 10836 10835 10834 10832 10830 10830 10831 10830 10827 10826 10827 10827 10827 10826 10825 10824 10823 10822 10820 10819 10817 10815 10812 10810 10807 10805 10805 10804 10802 10800 10799 10797 10796 10794 10793 10792 10791 10790 10790 10790 10789 10788 10788 10789 10789 10788 10787 10785 10785 10785 10785 10784 10783 10782 10782 10781 10780 10780 10779 10779 10779 10779 10778 10778 10779 10779 10780 10780 10781 10781 10782 10782 10782
10846 10844 10843 10842 10841 10839 10838 10837 10835 10834 10833 10831 10831 10830 10828 10826 10824 10823 10824 10824 10822 10822 10823 10823 10822 10821 10819 10818 10817 10815 10814 10813 10811 10808 10806 10803 10800 10799 10799 10798 10796 10795 10793 10792 10791 10789 10788 10787 10786 10786 10785 10785 10785 10784 10784 10784 10785 10785 10783 10782 10781 10781 10781 10781 10780 10779 10779 10778 10778 10777 10777 10777 10777 10777 10776 10776 10776 10777 10777 10778 10779 10779 10780 10780 10780
10841 10839 10838 10837 10835 10833 10831 10830 10828 10827 10826 10825 10825 10824 10822 10820 10818 10817 10817 10816 10815 10816 10818 10818 10816 10815 10813 10812 10810 10809 10807 10806 10804 10801 10799 10797 10794 10793 10793 10791 10790 10790 10789 10787 10786 10784 10784 10783 10783 10782 10781 10781 10780 10779 10780 10781 10782 10781 10779 10778 10778 10778 10778 10778 10777 10776 10776 10775 10775 10774 10774 10774 10774 10775 10774 10774 10774 10775 10775 10776 10776 10777 10777 10778 10778
10835 10834 10832 10831 10829 10827 10825 10823 10821 10820 10819 10818 10818 10818 10815 10813 10812 10811 10810 10809 10808 10810 10812 10812 10811 10809 10807 10805 10803 10802 10800 10799 10797 10794 10792 10790 10788 10787 10786 10785 10785 10785 10784 10782 10781 10780 10780 10780 10779 10778 10777 10777 10776 10775 10776 10777 10778 10778 10776 10775 10774 10775 10775 10775 10774 10774 10773 10773 10772 10772 10772 10772 10772 10773 10773 10772 10772 10772 10773 10773 10774 10774 10775 10776 10776
10829 10828 10827 10825 10823 10820 10818 10816 10815 10813 10811 10812 10811 10809 10808 10806 10805 10805 10804 10802 10801 10804 10806 10806 10805 10803 10801 10798 10796 10794 10792 10791 10789 10787 10786 10784 10782 10781 10780 10780 10780 10780 10779 10778 10777 10777 10776 10776 10775 10774 10773 10772 10772 10771 10772 10773 10775 10775 10773 10772 10771 10771 10772 10771 10771 10771 10770 10770 10770 10769 10769 10769 10770 10770 10771 10770 10770 10770 10771 10771 10771 10772 10773 10773 10774
10823 10822 10821 10819 10817 10814 10812 10809 10808 10805 10803 10804 10803 10800 10800 10799 10798 10797 10797 10796 10794 10797 10799 10799 10798 10796 10794 10792 10789 10787 10785 10783 10781 10780 10780 10778 10776 10775 10774 10774 10775 10775 10774 10773 10773 10773 10773 10772 10771 10770 10769 10768 10768 10768 10768 10769 10771 10772 10771 10769 10768 10768 10768 10768 10768 10768 10768 10767 10767 10767 10767 10767 10767 10768 10768 10768 10768 10768 10768 10769 10769 10770 10770 10771 10772
10817 10816 10815 10812 10810 10807 10805 10802 10800 10798 10795 10795 10793 10792 10792 10791 10791 10790 10790 10790 10789 10789 10790 10791 10790 10789 10787 10784 10781 10780 10778 10776 10774 10774 10774 10772 10771 10770 10769 10769 10770 10770 10770 10770 10769 10769 10769 10768 10767 10766 10765 10765 10764 10764 10765 10765 10767 10769 10768 10767 10766 10765 10765 10765 10765 10765 10765 10765 10764 10764 10764 10764 10765 10765 10766 10766 10766 10766 10766 10766 10767 10767 10768 10768 10769
10811 10810 10808 10805 10802 10799 10797 10794 10792 10791 10789 10787 10785 10784 10784 10784 10784 10783 10783 10784 10783 10783 10782 10783 10783 10781 10778 10776 10774 10772 10771 10770 10769 10768 10767 10766 10766 10765 10764 10764 10765 10767 10767 10767 10766 10765 10765 10765 10763 10763 10762 10761 10761 10761 10761 10762 10763 10765 10766 10764 10763 10762 10761 10761 10761 10762 10762 10762 10762 10761 10761 10762 10762 10763 10763 10763 10763 10764 10764 10764 10764 10765 10766 10766 10767
10804 10802 10800 10797 10794 10791 10789 10787 10785 10783 10781 10780 10778 10777 10777 10777 10777 10777 10777 10778 10777 10777 10775 10775 10775 10773 10770 10768 10766 10765 10765 10765 10764 10763 10762 10762 10762 10761 10760 10760 10761 10762 10763 10764 10763 10761 10761 10761 10760 10759 10759 10758 10757 10757 10757 10758 10759 10761 10762 10761 10760 10760 10759 10758 10758 10758 10759 10759 10759 10759 10759 10759 10759 10760 10760 10760 10761 10761 10761 10761 10762 10762 10763 10764 10764
10797 10795 10792 10788 10785 10784 10782 10780 10777 10776 10772 10771 10770 10769 10770 10770 10770 10771 10771 10772 10771 10771 10769 10767 10767 10765 10762 10761 10760 10760 10760 10760 10759 10759 10759 10759 10758 10757 10756 10756 10757 10758 10759 10760 10759 10757 10757 10757 10757 10756 10755 10755 10754 10754 10754 10754 10755 10757 10758 10757 10757 10757 10756 10755 10755 10755 10755 10756 10756 10756 10756 10756 10757 10757 10758 10758 10758 10758 10759 10759 10759 10760 10760 10761 10762
10790 10788 10784 10780 10778 10777 10774 10771 10768 10768 10765 10762 10762 10762 10763 10764 10764 10765 10766 10765 10765 10765 10763 10761 10759 10758 10757 10755 10755 10755 10755 10755 10755 10755 10755 10755 10754 10753 10753 10753 10754 10754 10755 10756 10755 10754 10753 10753 10753 10752 10752 10751 10750 10750 10750 10750 10751 10752 10754 10754 10753 10753 10753 10753 10752 10751 10752 10752 10753 10754 10753 10753 10754 10754 10755 10755 10755 10755 10756 10757 10757 10757 10758 10758 10759
10783 10780 10777 10774 10771 10769 10765 10762 10759 10760 10759 10755 10755 10754 10755 10758 10759 10760 10761 10760 10760 10758 10757 10756 10754 10753 10752 10751 10750 10751 10751 10750 10750 10751 10750 10750 10749 10749 10749 10749 10750 10750 10751 10752 10752 10751 10750 10749 10749 10749 10748 10747 10747 10746 10746 10745 10746 10747 10749 10750 10749 10748 10749 10749 10749 10749 10749 10749 10749 10750 10751 10750 10751 10751 10751 10752 10752 10752 10753 10754 10754 10755 10755 10755 10756
10776 10774 10771 10767 10764 10761 10757 10753 10751 10752 10753 10749 10749 10749 10750 10753 10754 10755 10756 10755 10755 10753 10752 10752 10750 10748 10747 10747 10747 10747 10747 10746 10746 10746 10746 10746 10745 10745 10745 10745 10745 10746 10747 10748 10748 10748 10747 10746 10745 10745 10745 10744 10743 10742 10741 10741 10741 10743 10744 10745 10745 10744 10745 10746 10746 10745 10745 10746 10746 10747 10747 10747 10748 10748 10748 10749 10749 10749 10750 10751 10751 10752 10752 10752 10753
10769 10767 10763 10760 10757 10754 10749 10745 10744 10744 10744 10741 10743 10746 10746 10746 10747 10748 10749 10749 10749 10748 10748 10748 10746 10744 10743 10743 10743 10743 10743 10742 10741 10741 10741 10741 10741 10740 10740 10740 10741 10741 10742 10743 10744 10745 10744 10743 10743 10742 10741 10740 10739 10738 10737 10736 10737 10738 10739 10740 10741 10741 10741 10741 10742 10742 10742 10742 10743 10743 10744 10744 10745 10745 10745 10745 10746 10746 10747 10747 10748 10749 10749 10749 10749
10763 10759 10756 10753 10750 10747 10742 10737 10736 10735 10735 10734 10735 10739 10739 10739 10740 10741 10743 10744 10743 10743 10743 10742 10741 10740 10740 10739 10739 10739 10738 10737 10736 10736 10736 10736 10736 10736 10736 10736 10736 10736 10737 10739 10740 10741 10741 10740 10740 10739 10738 10736 10735 10734 10733 10732 10732 10733 10734 10736 10737 10737 10737 10737 10737 10738 10738 10739 10739 10740 10740 10741 10741 10742 10742 10742 10743 10743 10744 10744 10745 10745 10746 10746 10746
10755 10752 10749 10746 10741 10737 10735 10730 10728 10729 10729 10729 10730 10731 10732 10733 10734 10735 10737 10739 10738 10737 10738 10737 10736 10736 10736 10736 10735 10734 10734 10733 10732 10732 10732 10733 10733 10732 10732 10731 10731 10731 10733 10735 10736 10737 10738 10738 10737 10736 10735 10733 10731 10730 10729 10727 10727 10727 10729 10730 10732 10733 10733 10733 10733 10733 10734 10735 10736 10736 10736 10737 10738 10738 10738 10739 10739 10740 10741 10741 10742 10742 10742 10743 10743
10748 10746 10745 10741 10732 10729 10728 10722 10721 10724 10724 10724 10724 10724 10724 10727 10728 10729 10731 10732 10731 10731 10732 10732 10732 10732 10732 10731 10731 10729 10729 10728 10728 10728 10729 10730 10730 10729 10728 10727 10727 10728 10729 10731 10732 10733 10734 10735 10734 10733 10731 10729 10727 10726 10724 10723 10722 10722 10723 10725 10727 10728 10729 10729 10729 10729 10730 10731 10732 10732 10732 10733 10734 10735 10735 10736 10736 10737 10737 10738 10738 10739 10739 10739 10740
10741 10741 10740 10737 10728 10724 10726 10720 10715 10717 10718 10719 10719 10719 10719 10721 10722 10722 10723 10725 10725 10726 10727 10727 10727 10727 10726 10726 10726 10725 10724 10724 10724 10724 10725 10726 10726 10725 10724 10723 10724 10725 10725 10726 10727 10729 10730 10731 10731 10729 10728 10726 10724 10722 10720 10719 10718 10717 10718 10719 10721 10722 10723 10724 10724 10724 10725 10726 10728 10728 10728 10729 10730 10731 10732 10733 10733 10733 10734 10734 10735 10735 10736 10736 10736
10733 10733 10733 10732 10726 10720 10721 10719 10713 10710 10711 10713 10713 10714 10714 10715 10716 10716 10717 10718 10720 10721 10722 10722 10722 10721 10720 10719 10720 10720 10720 10720 10719 10719 10721 10721 10721 10720 10719 10720 10721 10721 10721 10721 10722 10724 10725 10726 10726 10725 10723 10722 10720 10718 10717 10715 10714 10712 10711 10713 10714 10716 10717 10718 10719 10720 10720 10722 10723 10724 10725 10725 10726 10727 10728 10729 10730 10730 10730 10730 10731 10732 10732 10733 10733
10725 10726 10726 10725 10722 10716 10714 10713 10710 10706 10706 10707 10707 10708 10708 10709 10710 10710 10712 10713 10714 10715 10716 10716 10716 10715 10714 10713 10714 10715 10715 10715 10715 10715 10714 10714 10715 10715 10715 10715 10716 10717 10717 10717 10718 10719 10720 10721 10721 10720 10719 10718 10716 10714 10713 10711 10709 10707 10705 10706 10708 10710 10711 10712 10713 10715 10716 10717 10719 10720 10721 10721 10722 10723 10724 10725 10726 10726 10726 10726 10727 10728 10729 10729 10730
10718 10719 10719 10717 10715 10712 10710 10707 10705 10703 10702 10702 10701 10702 10703 10703 10704 10705 10707 10708 10709 10709 10710 10711 10710 10710 10709 10708 10709 10710 10710 10710 10709 10709 10708 10706 10708 10710 10710 10711 10711 10712 10712 10712 10713 10714 10715 10716 10716 10715 10715 10713 10711 10710 10708 10706 10704 10702 10701 10701 10702 10704 10705 10706 10708 10709 10711 10713 10714 10716 10716 10717 10718 10719 10720 10720 10721 10722 10722 10723 10723 10724 10725 10726 10726
10712 10711 10710 10710 10709 10708 10706 10702 10700 10698 10697 10697 10696 10696 10697 10698 10699 10700 10701 10702 10703 10703 10704 10704 10704 10704 10703 10703 10704 10705 10706 10704 10703 10704 10704 10703 10704 10704 10705 10706 10706 10707 10706 10707 10708 10709 10710 10711 10710 10710 10710 10708 10706 10704 10702 10700 10698 10697 10696 10696 10696 10698 10700 10701 10702 10704 10706 10709 10710 10711 10712 10713 10713 10714 10715 10716 10717 10718 10719 10719 10720 10720 10721 10722 10723
10706 10705 10703 10702 10702 10702 10700 10697 10695 10693 10693 10692 10692 10691 10692 10694 10694 10694 10694 10695 10696 10697 10697 10698 10698 10698 10698 10698 10699 10700 10700 10699 10698 10700 10700 10699 10699 10699 10699 10701 10701 10702 10702 10702 10703 10704 10705 10706 10705 10704 10704 10702 10699 10697 10696 10694 10693 10692 10690 10690 10691 10692 10694 10696 10698 10699 10701 10703 10705 10706 10707 10708 10709 10710 10711 10712 10713 10714 10715 10716 10716 10717 10717 10718 10719
10698 10698 10697 10696 10695 10695 10693 10692 10691 10689 10688 10687 10687 10687 10687 10688 10689 10688 10688 10689 10690 10690 10691 10691 10692 10693 10693 10693 10694 10695 10694 10693 10696 10697 10694 10693 10692 10692 10694 10696 10697 10698 10698 10698 10698 10699 10700 10700 10700 10700 10699 10696 10693 10690 10690 10688 10687 10686 10685 10685 10685 10686 10688 10690 10692 10694 10696 10698 10700 10701 10703 10704 10705 10706 10707 10708 10709 10710 10711 10712 10712 10713 10714 10715 10716
10690 10690 10690 10690 10690 10689 10687 10687 10686 10685 10684 10683 10683 10682 10681 10682 10683 10683 10683 10683 10684 10684 10685 10685 10686 10687 10688 10688 10688 10689 10688 10689 10692 10692 10689 10688 10687 10687 10689 10692 10693 10694 10694 10693 10693 10694 10694 10694 10695 10695 10694 10692 10688 10685 10683 10682 10680 10680 10679 10679 10680 10681 10683 10685 10687 10689 10691 10693 10695 10697 10699 10700 10701 10702 10703 10704 10705 10706 10707 10708 10709 10709 10710 10711 10712
10682 10683 10684 10685 10685 10683 10682 10681 10681 10680 10679 10678 10677 10676 10675 10676 10676 10677 10678 10678 10678 10678 10679 10679 10679 10680 10681 10681 10682 10683 10683 10684 10686 10686 10684 10684 10684 10684 10687 10688 10689 10689 10689 10689 10689 10689 10689 10689 10689 10689 10689 10687 10683 10680 10678 10677 10675 10674 10673 10674 10675 10676 10678 10680 10682 10685 10687 10688 10690 10692 10694 10695 10696 10697 10698 10699 10701 10702 10703 10704 10705 10706 10707 10708 10709
10675 10676 10677 10679 10679 10678 10677 10676 10676 10674 10673 10673 10672 10671 10670 10670 10670 10671 10672 10672 10672 10672 10673 10673 10673 10674 10674 10675 10676 10676 10677 10679 10681 10681 10681 10682 10682 10682 10684 10685 10685 10685 10684 10684 10684 10684 10684 10684 10684 10684 10683 10681 10678 10675 10673 10671 10670 10669 10668 10668 10669 10671 10673 10675 10677 10679 10681 10683 10685 10687 10689 10690 10692 10693 10694 10695 10697 10698 10700 10701 10702 10702 10703 10704 10705
10668 10669 10670 10671 10672 10673 10672 10671 10670 10669 10668 10668 10667 10666 10665 10665 10665 10665 10666 10666 10667 10666 10667 10667 10668 10668 10669 10670 10671 10672 10673 10675 10676 10677 10678 10679 10679 10680 10680 10681 10681 10680 10680 10679 10679 10679 10679 10679 10679 10678 10677 10675 10672 10669 10667 10666 10665 10664 10663 10664 10665 10666 10668 10670 10672 10674 10676 10678 10680 10682 10684 10685 10687 10689 10690 10691 10693 10694 10696 10697 10698 10699 10700 10700 10702
10661 10662 10663 10665 10666 10666 10666 10666 10665 10664 10664 10663 10662 10661 10661 10660 10660 10660 10660 10661 10661 10661 10661 10662 10663 10664 10665 10666 10667 10668 10669 10671 10672 10673 10673 10674 10675 10675 10676 10676 10676 10675 10675 10674 10674 10674 10674 10674 10673 10672 10671 10669 10666 10663 10661 10660 10660 10659 10659 10659 10660 10662 10663 10665 10667 10669 10672 10673 10675 10677 10678 10680 10682 10684 10686 10687 10689 10690 10692 10693 10695 10696 10697 10697 10698
10654 10656 10657 10659 10659 10659 10659 10659 10659 10659 10659 10658 10657 10656 10655 10655 10655 10655 10656 10656 10656 10656 10657 10658 10658 10659 10660 10661 10662 10664 10665 10666 10667 10668 10668 10668 10669 10670 10670 10671 10671 10670 10670 10669 10669 10669 10669 10668 10668 10667 10665 10664 10660 10657 10656 10655 10655 10655 10655 10656 10656 10657 10659 10661 10663 10665 10667 10668 10670 10672 10673 10675 10677 10679 10681 10683 10685 10687 10688 10690 10691 10692 10693 10694 10695
10649 10651 10651 10652 10653 10652 10652 10653 10653 10653 10653 10652 10652 10651 10650 10649 10650 10650 10651 10652 10653 10653 10653 10653 10654 10655 10656 10657 10658 10659 10660 10661 10662 10662 10663 10663 10664 10665 10665 10666 10666 10665 10665 10664 10664 10664 10664 10663 10662 10661 10661 10660 10655 10652 10652 10652 10652 10652 10652 10652 10653 10654 10655 10657 10659 10661 10663 10664 10665 10667 10669 10671 10672 10674 10676 10679 10681 10683 10684 10686 10688 10689 10690 10690 10691
10645 10646 10646 10646 10646 10646 10646 10647 10647 10647 10647 10646 10646 10646 10645 10645 10645 10646 10647 10648 10648 10649 10648 10649 10650 10650 10652 10653 10653 10654 10656 10656 10657 10657 10658 10659 10659 10660 10660 10661 10661 10661 10660 10660 10660 10660 10659 10658 10657 10656 10656 10655 10650 10647 10649 10648 10648 10649 10649 10649 10650 10650 10651 10653 10655 10657 10659 10660 10661 10663 10664 10666 10668 10670 10672 10675 10677 10678 10680 10682 10684 10685 10686 10686 10686
10641 10642 10642 10641 10640 10640 10641 10641 10641 10641 10641 10640 10641 10641 10641 10641 10641 10641 10642 10643 10644 10644 10644 10645 10646 10647 10648 10649 10649 10650 10651 10652 10652 10652 10653 10654 10655 10655 10656 10656 10656 10656 10656 10656 10656 10656 10655 10653 10652 10650 10651 10650 10645 10643 10645 10644 10643 10644 10645 10646 10646 10647 10648 10650 10651 10653 10655 10656 10657 10659 10660 10662 10664 10665 10667 10670 10672 10673 10675 10677 10678 10680 10680 10680 10680
10638 10638 10638 10637 10636 10636 10636 10636 10636 10636 10636 10635 10635 10636 10636 10636 10636 10637 10637 10638 10639 10640 10640 10641 10643 10643 10644 10645 10645 10646 10647 10647 10647 10647 10648 10649 10650 10651 10652 10652 10652 10652 10652 10652 10652 10651 10650 10648 10647 10645 10645 10645 10641 10640 10641 10640 10639 10640 10641 10642 10642 10643 10645 10646 10648 10649 10650 10651 10653 10655 10657 10658 10659 10661 10662 10664 10666 10668 10670 10671 10673 10674 10675 10675 10676
10635 10635 10635 10634 10634 10633 10633 10633 10632 10631 10631 10631 10631 10631 10631 10631 10631 10632 10633 10634 10635 10636 10636 10637 10639 10639 10640 10641 10641 10642 10642 10643 10643 10643 10643 10644 10645 10646 10647 10647 10647 10647 10647 10646 10646 10645 10644 10643 10642 10641 10640 10639 10637 10636 10636 10636 10636 10636 10637 10637 10638 10639 10640 10642 10643 10644 10646 10647 10648 10650 10652 10654 10654 10655 10657 10659 10660 10663 10665 10666 10668 10669 10670 10671 10671
10633 10633 10632 10632 10632 10631 10630 10629 10627 10626 10626 10626 10626 10626 10626 10626 10626 10627 10628 10629 10630 10631 10632 10633 10634 10635 10635 10636 10636 10637 10638 10638 10638 10638 10639 10639 10640 10641 10642 10642 10642 10642 10641 10641 10640 10640 10639 10638 10637 10636 10635 10634 10633 10632 10632 10632 10632 10632 10633 10633 10634 10635 10636 10637 10638 10640 10641 10643 10644 10646 10648 10649 10649 10650 10652 10654 10656 10658 10660 10661 10662 10663 10664 10665 10666
10630 10630 10630 10629 10630 10631 10630 10628 10624 10620 10619 10620 10621 10621 10621 10621 10621 10622 10622 10623 10625 10626 10626 10627 10629 10630 10630 10631 10631 10632 10633 10633 10633 10633 10634 10634 10635 10636 10637 10637 10637 10637 10636 10636 10635 10635 10634 10634 10633 10632 10631 10630 10629 10628 10628 10628 10628 10628 10628 10629 10629 10630 10631 10632 10633 10635 10637 10639 10640 10641 10643 10644 10645 10646 10648 10650 10651 10653 10655 10656 10657 10658 10659 10660 10661
10627 10626 10625 10624 10625 10628 10630 10628 10621 10614 10614 10616 10616 10616 10617 10617 10617 10617 10618 10618 10619 10620 10621 10622 10623 10625 10625 10626 10626 10627 10627 10628 10628 10628 10629 10629 10630 10630 10631 10632 10632 10631 10631 10631 10631 10630 10630 10629 10629 10628 10627 10626 10625 10625 10625 10625 10625 10625 10624 10624 10625 10626 10627 10627 10628 10630 10632 10634 10636 10637 10637 10639 10641 10642 10644 10645 10646 10648 10650 10651 10652 10653 10654 10656 10656
10621 10618 10617 10617 10619 10621 10622 10620 10613 10608 10611 10613 10612 10613 10613 10613 10613 10613 10614 10614 10614 10615 10616 10618 10619 10620 10620 10621 10621 10621 10622 10623 10623 10623 10624 10624 10625 10625 10626 10627 10627 10627 10627 10627 10627 10626 10626 10625 10625 10624 10623 10623 10622 10621 10621 10621 10621 10621 10621 10621 10621 10621 10622 10623 10624 10626 10628 10630 10631 10631 10632 10633 10636 10638 10639 10640 10641 10643 10645 10646 10647 10649 10650 10651 10652
10613 10609 10609 10611 10614 10615 10615 10613 10608 10608 10612 10612 10610 10611 10610 10610 10610 10610 10610 10610 10611 10612 10613 10614 10615 10616 10616 10616 10616 10617 10617 10618 10618 10619 10619 10619 10620 10620 10621 10622 10622 10623 10623 10623 10623 10623 10623 10622 10621 10620 10619 10619 10619 10618 10618 10618 10618 10618 10618 10618 10618 10618 10618 10619 10620 10621 10623 10625 10625 10626 10627 10629 10631 10632 10633 10634 10636 10637 10639 10640 10642 10644 10645 10646 10647
10601 10601 10605 10608 10610 10611 10609 10607 10606 10608 10609 10608 10608 10608 10607 10607 10607 10606 10607 10607 10608 10609 10610 10611 10612 10612 10612 10612 10612 10613 10613 10614 10614 10614 10614 10614 10615 10615 10616 10617 10617 10618 10618 10618 10619 10619 10619 10618 10618 10617 10616 10615 10615 10615 10615 10615 10615 10615 10615 10615 10616 10616 10616 10616 10617 10617 10619 10620 10620 10620 10622 10623 10625 10626 10628 10629 10630 10631 10632 10634 10636 10638 10640 10641 10642
10595 10598 10604 10607 10607 10606 10604 10602 10603 10604 10604 10603 10603 10603 10603 10602 10602 10602 10602 10603 10603 10605 10606 10607 10607 10609 10609 10608 10608 10609 10610 10610 10610 10610 10610 10610 10610 10610 10611 10612 10612 10613 10613 10614 10614 10615 10615 10614 10614 10614 10613 10613 10612 10612 10612 10612 10612 10612 10612 10612 10613 10613 10613 10613 10614 10614 10615 10615 10615 10616 10617 10618 10619 10620 10623 10624 10625 10626 10626 10627 10630 10632 10634 10635 10636
10600 10601 10603 10604 10603 10602 10600 10598 10599 10600 10599 10598 10598 10598 10598 10597 10597 10597 10597 10597 10599 10600 10601 10602 10603 10605 10606 10605 10604 10605 10606 10606 10606 10606 10606 10606 10606 10606 10606 10607 10607 10608 10609 10610 10610 10611 10611 10611 10611 10611 10611 10610 10610 10610 10609 10609 10609 10608 10609 10609 10609 10610 10610 10611 10611 10611 10611 10611 10611 10612 10612 10613 10613 10615 10617 10618 10620 10621 10621 10622 10624 10627 10628 10629 10631